Temp
20 20 18 19 26 28 29 29 29 28 28 26 26 26 28 27 27 25 18 17 17 16 15 16 15 15 15 15 15 15 15 14 14 14 14 14 14 14 14 14 14 15 15 15 15 16 16 16 16
20 20 19 23 26 28 29 29 28 29 27 24 24 24 25 24 20 17 18 17 17 16 15 15 15 15 15 15 15 15 15 15 15 14 14 15 15 15 15 15 15 16 16 16 16 16 16 16 16
20 19 23 26 28 28 29 28 29 27 24 24 24 23 23 21 18 19 18 17 16 16 15 15 15 15 15 15 15 15 15 15 15 14 14 15 15 15 15 15 15 15 16 16 16 16 16 16 16
19 20 22 26 27 28 28 27 27 26 25 25 25 25 19 17 18 18 16 16 16 16 16 16 15 15 15 15 15 16 16 16 15 15 15 15 15 16 16 16 15 15 16 15 15 16 16 16 16
19 22 26 26 27 27 28 27 26 27 25 25 24 23 20 16 17 17 16 16 16 15 15 16 15 15 15 15 15 16 16 16 16 15 15 16 16 16 16 16 16 15 15 15 15 15 15 16 16
23 23 25 26 27 27 28 27 26 26 25 25 24 23 18 16 16 17 16 16 14 15 15 15 15 15 15 15 15 15 16 16 16 15 15 16 16 16 15 15 15 15 15 15 15 15 16 16 16
23 25 26 26 27 26 27 26 26 27 25 24 24 24 15 16 17 16 16 15 14 14 14 14 14 15 15 15 15 15 16 16 15 15 15 16 16 16 15 15 15 15 15 15 15 16 16 16 16
23 26 25 25 26 27 26 25 24 26 25 22 22 24 18 14 15 16 16 15 14 16 14 14 13 13 15 15 15 15 16 16 16 16 15 16 16 15 15 15 15 15 15 15 16 16 16 16 16
22 24 25 26 25 27 25 26 23 23 23 22 21 22 20 14 13 16 16 15 14 16 16 15 13 13 14 14 15 15 16 16 16 16 16 15 14 14 15 15 15 15 16 16 16 16 16 16 16
23 24 25 27 27 26 26 26 23 23 23 21 20 18 16 15 15 17 16 16 15 15 16 16 13 13 15 13 15 14 15 14 13 14 15 14 14 14 14 15 16 16 16 16 16 16 16 16 15
23 24 26 26 25 25 26 25 24 24 24 23 21 19 15 14 16 16 17 17 16 15 14 16 15 15 14 14 14 14 14 13 13 13 14 13 14 16 15 15 15 15 16 15 15 15 16 15 15
22 24 25 25 24 24 25 25 24 24 25 24 22 19 16 15 16 17 18 17 17 16 14 14 16 14 14 14 14 14 14 14 14 14 13 13 14 14 15 15 15 15 15 15 15 15 15 15 15
21 24 24 24 24 24 24 25 24 23 23 21 21 18 16 16 17 17 18 18 17 16 15 14 14 13 13 14 14 14 14 14 14 14 14 14 15 14 15 14 15 15 14 14 14 15 15 15 15
22 23 24 24 23 24 24 25 22 24 23 21 19 18 17 17 18 18 18 18 17 16 15 14 14 13 14 14 13 14 14 14 14 14 14 15 15 14 14 14 14 14 15 14 15 15 13 14 15
22 21 23 23 23 24 23 25 23 24 22 21 20 19 18 18 18 18 17 17 17 16 15 15 13 13 13 14 15 14 14 14 14 14 15 15 15 15 14 14 15 15 15 15 15 14 14 14 14
21 21 22 23 24 23 24 24 26 25 22 22 21 20 19 18 18 17 17 16 16 16 15 14 14 14 14 14 14 14 14 14 14 14 15 15 15 15 15 15 15 15 15 14 14 14 13 13 12
21 22 21 23 23 24 24 24 27 25 23 23 20 20 20 19 18 17 17 17 16 16 15 14 14 15 15 15 14 13 15 14 13 14 14 15 15 15 14 14 15 14 14 14 14 13 12 12 11
21 21 22 22 23 22 24 23 26 25 24 24 21 19 19 19 19 18 17 17 17 16 15 14 14 14 14 15 14 13 14 14 15 15 15 15 15 14 14 14 14 14 14 14 13 13 12 10 9
22 22 22 23 22 22 23 24 25 25 23 24 23 21 19 18 18 18 17 17 17 16 15 14 13 13 13 13 13 14 14 15 15 14 15 14 14 14 14 14 14 14 13 13 13 12 12 10 10
20 20 21 22 21 20 23 23 25 26 24 24 23 22 20 19 18 18 16 16 16 16 14 14 14 15 16 14 14 14 13 14 14 15 14 14 14 14 14 14 14 14 13 13 13 12 11 9 10
19 20 20 20 21 21 21 22 23 25 24 23 22 23 21 20 18 17 16 16 15 15 15 14 14 17 17 16 13 14 14 15 14 15 14 14 14 14 14 14 14 14 13 13 13 13 12 9 8
19 20 20 20 19 20 21 21 23 24 24 24 22 22 21 20 19 18 16 16 15 15 14 14 14 15 16 15 15 15 16 16 15 15 14 15 14 14 14 14 14 14 13 12 12 12 11 9 8
20 19 19 19 19 20 20 20 24 24 24 25 25 21 20 20 19 19 17 16 15 14 17 17 17 14 17 16 17 16 14 13 13 14 14 14 14 14 14 13 13 13 12 13 12 12 11 9 9
19 18 19 18 19 18 20 20 23 23 22 24 26 22 20 19 19 19 18 16 15 17 18 17 16 17 14 17 17 15 14 13 13 14 14 14 14 14 14 14 13 13 13 13 12 12 11 9 8
18 18 17 17 17 19 22 20 22 19 18 19 21 20 20 19 19 18 18 16 16 14 15 18 15 17 16 16 15 15 13 13 15 15 14 13 14 13 13 13 12 12 12 12 12 11 11 10 9
17 19 19 17 18 20 19 19 21 17 16 16 16 15 15 17 18 18 17 16 16 15 14 16 15 15 13 13 15 14 14 14 13 13 14 13 13 13 13 12 12 12 12 12 12 11 10 10 9
18 18 21 18 17 20 19 18 17 17 16 16 15 14 13 13 13 14 16 16 16 15 14 14 13 13 13 13 13 14 15 16 15 14 13 12 12 12 12 11 12 12 12 12 11 11 10 10 9
18 20 17 18 17 18 19 18 19 16 15 15 14 13 12 11 11 12 12 13 14 14 13 13 12 12 13 13 13 14 15 14 12 12 12 12 12 12 11 11 11 11 11 11 10 10 10 10 9
16 17 18 19 19 19 18 19 17 15 14 13 13 11 10 10 10 10 11 13 13 13 12 12 12 11 12 12 12 12 12 12 12 12 12 12 12 11 10 11 10 11 11 10 9 9 9 9 9
14 17 18 17 17 18 20 17 15 13 12 12 11 10 9 9 9 9 9 9 10 11 11 12 11 11 11 11 11 11 11 12 12 12 11 11 11 10 9 10 10 10 10 9 9 9 9 9 8
Height
1503 1503 1504 1506 1500 1483 1473 1471 1469 1473 1477 1483 1484 1486 1483 1481 1485 1495 1507 1509 1513 1516 1519 1523 1526 1528 1529 1531 1532 1533 1533 1535 1536 1537 1537 1538 1540 1541 1543 1544 1547 1548 1549 1551 1554 1555 1555 1557 1558
1502 1503 1505 1500 1491 1479 1471 1465 1472 1468 1478 1484 1489 1490 1489 1492 1497 1499 1505 1509 1514 1516 1520 1523 1526 1528 1530 1532 1534 1535 1536 1537 1539 1540 1540 1541 1543 1544 1545 1548 1549 1551 1552 1553 1556 1557 1558 1560 1561
1502 1503 1502 1489 1478 1475 1466 1471 1467 1476 1481 1484 1488 1491 1493 1498 1500 1503 1506 1510 1514 1518 1521 1523 1526 1529 1531 1533 1535 1537 1538 1540 1541 1543 1543 1544 1545 1546 1547 1549 1551 1553 1554 1557 1559 1560 1561 1563 1563
1502 1505 1501 1489 1477 1469 1472 1473 1474 1479 1482 1483 1484 1489 1497 1500 1502 1504 1506 1511 1515 1520 1523 1523 1527 1530 1533 1535 1536 1538 1540 1541 1543 1544 1545 1546 1546 1548 1549 1551 1553 1555 1557 1559 1561 1563 1564 1565 1566
1501 1498 1485 1483 1477 1474 1473 1475 1476 1476 1480 1484 1485 1489 1496 1501 1503 1505 1509 1513 1516 1519 1522 1524 1528 1531 1533 1536 1538 1539 1541 1542 1544 1546 1547 1548 1549 1550 1552 1554 1555 1558 1560 1562 1564 1565 1567 1568 1569
1496 1492 1484 1479 1474 1474 1473 1475 1476 1477 1481 1484 1487 1489 1497 1501 1503 1507 1511 1513 1515 1519 1521 1524 1528 1531 1535 1537 1538 1540 1541 1543 1545 1547 1549 1550 1552 1554 1555 1557 1559 1561 1563 1565 1567 1568 1569 1570 1571
1489 1483 1476 1472 1471 1475 1471 1475 1475 1475 1481 1484 1486 1487 1499 1501 1505 1508 1512 1513 1516 1519 1523 1525 1528 1531 1535 1538 1540 1541 1543 1544 1547 1548 1550 1552 1554 1556 1557 1559 1561 1563 1565 1567 1568 1569 1571 1572 1572
1486 1480 1474 1474 1474 1470 1472 1475 1476 1474 1479 1485 1487 1485 1495 1498 1504 1507 1512 1514 1515 1518 1521 1526 1529 1532 1535 1537 1540 1543 1545 1546 1548 1550 1552 1554 1556 1558 1560 1562 1564 1565 1566 1568 1569 1571 1572 1573 1574
1485 1479 1471 1469 1473 1465 1472 1471 1477 1479 1481 1484 1486 1487 1488 1492 1500 1507 1510 1514 1515 1518 1521 1524 1530 1532 1535 1538 1540 1543 1546 1548 1550 1552 1554 1556 1559 1561 1562 1563 1565 1567 1568 1569 1571 1572 1574 1575 1576
1479 1472 1465 1463 1466 1466 1469 1471 1476 1477 1478 1483 1486 1488 1488 1490 1499 1504 1507 1511 1513 1516 1520 1523 1528 1531 1534 1539 1541 1544 1547 1550 1553 1554 1556 1559 1560 1563 1564 1565 1566 1568 1570 1571 1572 1574 1575 1576 1578
1473 1465 1463 1465 1469 1469 1467 1472 1474 1474 1474 1476 1481 1485 1487 1489 1497 1502 1506 1510 1510 1514 1519 1521 1526 1530 1535 1539 1542 1545 1548 1550 1553 1555 1558 1559 1561 1562 1566 1566 1568 1570 1571 1574 1575 1576 1578 1577 1579
1471 1466 1462 1463 1469 1469 1468 1468 1470 1472 1471 1474 1478 1482 1484 1487 1491 1498 1503 1507 1510 1514 1519 1522 1525 1529 1534 1539 1543 1545 1547 1550 1554 1556 1557 1560 1563 1564 1566 1569 1570 1571 1573 1574 1576 1575 1575 1576 1577
1468 1461 1463 1463 1466 1467 1467 1466 1468 1469 1470 1473 1475 1479 1482 1488 1492 1498 1504 1508 1512 1513 1517 1521 1525 1529 1532 1536 1541 1546 1548 1550 1553 1555 1557 1561 1564 1565 1567 1567 1570 1571 1572 1573 1574 1574 1575 1575 1575
1460 1461 1459 1460 1463 1464 1466 1462 1468 1465 1467 1471 1474 1476 1480 1483 1488 1496 1501 1506 1510 1514 1517 1520 1525 1528 1532 1536 1538 1542 1547 1549 1552 1554 1556 1558 1563 1564 1566 1567 1569 1569 1570 1572 1573 1574 1575 1574 1575
1459 1461 1458 1458 1459 1459 1463 1457 1461 1460 1465 1467 1471 1474 1478 1483 1488 1492 1498 1503 1509 1513 1517 1518 1523 1527 1531 1534 1537 1541 1544 1548 1551 1552 1554 1557 1560 1561 1564 1566 1567 1568 1569 1570 1572 1573 1573 1573 1573
1459 1458 1453 1450 1455 1456 1458 1453 1447 1452 1460 1463 1466 1470 1476 1480 1485 1491 1496 1501 1507 1512 1515 1517 1522 1525 1529 1533 1536 1540 1542 1546 1548 1551 1553 1555 1557 1560 1562 1564 1566 1567 1569 1570 1571 1571 1571 1571 1571
1452 1446 1448 1443 1449 1450 1451 1449 1442 1447 1454 1458 1464 1467 1472 1477 1483 1489 1493 1498 1503 1509 1513 1516 1519 1523 1527 1530 1535 1538 1540 1544 1547 1549 1552 1554 1556 1557 1559 1562 1563 1566 1567 1568 1569 1570 1570 1569 1570
1440 1447 1442 1444 1441 1447 1442 1446 1440 1443 1449 1452 1458 1465 1469 1473 1478 1484 1490 1495 1500 1506 1510 1515 1517 1521 1525 1528 1532 1536 1539 1541 1544 1548 1550 1553 1554 1555 1557 1559 1560 1563 1564 1565 1566 1567 1568 1568 1568
1434 1436 1436 1435 1441 1444 1440 1438 1437 1439 1446 1447 1452 1459 1465 1468 1474 1481 1486 1492 1496 1501 1506 1511 1514 1517 1522 1525 1529 1533 1535 1539 1541 1544 1547 1550 1552 1553 1555 1556 1558 1559 1561 1562 1562 1563 1564 1565 1566
1437 1438 1437 1436 1442 1446 1434 1435 1432 1429 1440 1442 1446 1451 1458 1465 1470 1476 1481 1487 1490 1495 1501 1506 1510 1512 1517 1522 1527 1530 1534 1536 1539 1540 1544 1546 1549 1551 1552 1554 1555 1556 1557 1558 1559 1559 1560 1563 1565
1435 1436 1436 1439 1438 1442 1439 1438 1431 1427 1435 1439 1442 1445 1452 1458 1464 1470 1475 1479 1484 1489 1495 1500 1504 1507 1511 1517 1523 1525 1529 1532 1534 1536 1539 1542 1545 1547 1549 1550 1552 1552 1554 1555 1556 1557 1558 1560 1563
1433 1433 1434 1438 1444 1438 1434 1434 1423 1423 1425 1430 1437 1441 1446 1453 1460 1465 1470 1475 1478 1483 1491 1495 1501 1503 1506 1511 1514 1519 1524 1527 1530 1532 1535 1538 1541 1544 1545 1547 1548 1549 1550 1552 1553 1554 1556 1558 1559
1424 1430 1434 1436 1438 1436 1437 1438 1409 1414 1420 1422 1428 1439 1443 1448 1452 1456 1462 1468 1474 1480 1484 1491 1497 1497 1500 1506 1509 1516 1522 1526 1526 1528 1531 1534 1537 1540 1542 1543 1544 1545 1547 1548 1550 1551 1552 1554 1558
1425 1431 1435 1438 1435 1444 1425 1430 1410 1416 1421 1418 1421 1432 1439 1444 1449 1454 1459 1465 1469 1474 1477 1482 1491 1492 1498 1499 1504 1511 1517 1521 1521 1523 1527 1530 1533 1536 1537 1539 1540 1542 1543 1545 1547 1547 1548 1551 1554
1423 1426 1436 1441 1439 1427 1410 1427 1411 1427 1435 1434 1429 1432 1437 1442 1447 1452 1457 1461 1467 1469 1471 1476 1483 1485 1493 1499 1502 1507 1513 1515 1518 1520 1523 1526 1528 1531 1533 1535 1537 1538 1539 1541 1542 1544 1545 1547 1550
1414 1413 1409 1427 1420 1414 1425 1427 1415 1434 1438 1441 1442 1444 1444 1443 1446 1450 1454 1458 1463 1468 1469 1469 1475 1482 1488 1493 1497 1502 1507 1509 1512 1515 1517 1520 1525 1528 1530 1532 1533 1534 1535 1537 1539 1540 1542 1543 1546
1409 1407 1397 1412 1416 1405 1414 1424 1430 1434 1438 1443 1445 1446 1446 1447 1449 1450 1451 1455 1457 1459 1461 1467 1473 1478 1482 1484 1490 1493 1497 1501 1505 1508 1513 1518 1521 1524 1526 1529 1530 1530 1532 1534 1536 1538 1539 1541 1543
1400 1403 1415 1412 1420 1415 1404 1415 1411 1430 1437 1441 1445 1448 1449 1450 1450 1449 1450 1450 1454 1457 1460 1463 1470 1475 1476 1479 1481 1485 1490 1495 1500 1504 1508 1514 1517 1518 1522 1525 1526 1528 1528 1531 1533 1536 1537 1538 1540
1406 1401 1403 1400 1399 1400 1405 1407 1417 1430 1438 1440 1443 1445 1448 1450 1449 1450 1449 1447 1451 1454 1456 1458 1462 1466 1469 1473 1477 1481 1485 1490 1495 1501 1505 1509 1511 1511 1517 1519 1523 1523 1525 1529 1531 1533 1536 1537 1540
1407 1397 1399 1403 1400 1399 1388 1415 1427 1437 1442 1445 1447 1448 1448 1448 1449 1449 1449 1446 1444 1449 1451 1453 1456 1459 1462 1466 1470 1474 1480 1485 1491 1497 1501 1504 1508 1509 1512 1515 1519 1520 1523 1526 1530 1532 1533 1535 1538
Wind_Speed
4 4 4 4 7 6 9 3 2 5 5 6 14 2 4 11 2 4 14 17 21 21 19 18 17 15 13 13 13 13 15 16 17 16 16 20 17 17 17 18 18 18 18 18 18 20 22 23 21
5 5 4 5 8 10 7 3 8 4 6 10 12 4 6 5 6 13 20 19 22 22 20 18 18 15 14 13 14 13 14 15 15 15 14 15 14 16 17 16 18 19 20 22 22 24 22 20 19
6 7 7 5 9 12 1 1 2 3 10 15 10 2 2 4 6 21 17 24 23 21 20 19 18 16 15 13 14 13 13 13 13 14 14 13 16 18 18 18 20 21 22 24 23 22 20 19 18
5 5 6 8 13 3 3 3 3 10 10 13 7 8 6 2 12 14 24 24 23 21 19 21 19 16 15 13 12 14 13 12 12 13 13 13 17 20 21 21 23 23 24 24 23 21 19 17 17
7 6 8 11 13 5 6 2 9 11 12 13 11 7 6 6 11 22 24 23 23 21 19 22 19 18 14 13 12 14 14 12 12 12 13 14 18 20 20 22 24 25 24 22 20 18 16 15 15
10 7 9 12 14 6 6 4 11 10 9 12 7 10 6 10 18 23 23 22 22 21 22 22 19 17 14 13 14 14 14 14 14 15 14 18 20 21 22 23 24 23 21 19 17 15 14 14 14
16 10 14 11 8 8 9 5 11 13 10 12 6 6 7 16 21 23 21 20 22 22 22 21 20 18 15 14 14 14 15 16 16 16 17 20 21 22 22 21 20 19 17 16 14 12 12 11 11
16 9 15 12 10 10 5 5 5 14 11 6 10 6 9 24 24 23 22 22 23 28 25 21 19 17 17 16 15 15 16 16 17 18 20 21 21 21 20 18 18 17 15 13 11 10 9 9 8
12 11 14 16 11 7 7 7 5 7 9 10 10 4 10 30 27 25 24 23 24 29 28 25 19 20 19 17 17 16 17 17 17 18 20 20 17 16 16 16 15 14 12 10 9 8 7 5 5
14 14 19 9 8 5 8 4 7 9 13 9 10 8 23 31 30 29 29 29 28 29 30 28 21 21 21 16 20 16 17 14 13 15 18 13 16 14 13 14 13 11 10 9 7 6 6 7 3
20 19 17 12 11 9 9 7 5 9 12 15 17 19 28 33 32 30 29 28 30 29 27 31 26 24 19 17 16 15 14 13 13 14 12 13 13 15 11 11 10 9 9 6 6 6 5 7 5
17 21 22 18 12 8 10 7 9 13 11 8 15 23 30 35 34 32 30 30 30 29 27 27 28 25 21 18 16 16 15 14 12 11 13 11 10 10 10 9 9 8 7 7 7 6 6 6 4
19 19 21 22 12 15 11 14 12 14 14 6 14 24 30 32 30 30 27 27 28 29 28 28 27 24 23 21 18 16 15 14 13 12 12 10 9 9 8 8 9 8 7 7 6 6 5 6 4
12 24 17 17 20 18 15 17 8 13 15 12 20 26 30 34 33 29 29 28 29 28 28 28 27 24 24 20 21 19 16 15 13 12 12 13 10 9 8 8 8 7 7 8 7 6 6 5 5
18 14 18 17 16 13 18 18 13 18 11 18 22 24 28 31 31 31 29 28 28 27 27 30 27 25 23 21 21 17 17 16 13 13 16 15 11 11 9 9 8 8 8 7 5 7 8 8 8
14 15 17 19 18 19 16 20 21 19 16 18 21 22 28 31 30 28 28 28 27 26 27 28 26 27 26 22 21 18 17 15 15 14 15 16 13 11 10 9 9 10 8 7 7 7 6 6 6
12 14 20 17 17 19 21 17 19 16 18 17 20 24 29 28 28 27 27 27 28 26 26 27 28 28 27 25 21 18 21 17 13 16 15 15 13 10 12 11 11 9 9 10 9 8 7 7 7
15 17 10 16 17 18 22 22 18 13 19 19 20 23 26 27 30 29 28 28 28 26 26 27 28 28 28 26 23 20 21 19 19 18 16 15 13 10 11 13 11 10 10 10 9 9 8 8 9
9 14 14 11 6 13 21 20 23 18 17 18 19 23 26 28 28 28 27 28 28 27 27 28 27 28 26 25 24 23 23 23 22 19 19 17 15 11 11 11 10 10 10 10 10 10 10 10 11
12 14 12 6 9 7 13 18 20 19 17 18 20 24 26 25 26 28 29 30 30 30 29 30 30 33 31 26 24 22 20 22 20 21 19 19 15 12 11 11 11 10 11 10 10 10 10 11 13
18 15 14 11 8 13 10 14 20 22 16 15 17 20 24 27 28 30 32 33 31 32 33 33 33 35 33 30 25 26 25 24 24 23 22 20 16 13 13 12 12 12 12 12 12 12 12 10 13
19 16 14 11 8 11 18 10 20 21 22 19 16 18 22 26 27 28 30 31 33 33 31 34 32 34 34 33 32 33 30 28 25 24 23 22 19 17 15 14 13 13 13 13 12 13 13 11 12
16 11 15 12 13 6 12 9 10 16 21 22 16 14 19 26 30 31 31 31 32 30 35 38 42 40 37 37 34 33 27 19 18 24 25 23 21 19 17 15 14 13 13 13 13 13 14 14 12
7 13 10 8 9 11 16 14 12 8 11 19 19 11 15 21 24 25 25 26 28 33 33 40 46 40 39 38 36 35 28 22 22 25 25 24 22 20 18 17 15 13 13 13 13 14 14 14 14
19 19 9 10 10 10 11 11 2 5 4 5 7 1 7 16 18 20 23 25 26 30 39 45 47 44 42 40 36 37 29 29 28 27 26 26 25 20 18 18 15 14 13 13 13 14 15 16 16
26 22 9 15 15 13 8 10 8 5 7 8 10 11 10 7 8 16 20 23 26 28 31 31 35 43 39 43 41 39 35 36 30 29 30 28 19 19 19 18 16 14 13 13 13 14 15 17 18
23 20 15 2 4 11 11 5 7 8 9 12 13 14 14 12 7 3 9 17 20 21 29 33 35 37 45 45 40 37 38 37 33 30 25 22 18 20 20 17 16 15 13 13 13 14 15 16 16
15 18 12 9 13 11 11 15 10 11 9 10 12 16 16 14 13 9 2 8 15 18 21 24 27 30 36 38 38 38 38 37 31 28 24 23 20 19 22 19 17 15 13 13 14 15 15 15 16
11 16 16 14 11 14 10 9 8 10 8 10 12 16 17 17 17 15 13 7 11 13 14 19 19 20 26 28 29 32 33 32 29 27 24 23 23 22 23 19 18 16 14 15 16 16 16 16 16
6 14 21 12 19 12 11 7 11 11 10 10 13 14 17 18 18 18 18 14 16 9 5 7 8 11 15 19 21 27 28 27 27 26 20 24 23 25 22 20 18 16 15 16 17 17 19 18 17
Wind_Direction
187 168 174 238 239 238 250 187 288 175 174 134 153 174 180 68 36 52 141 142 156 150 160 163 163 158 152 145 136 129 122 118 111 106 110 113 115 120 123 129 134 133 129 122 124 116 107 105 103
190 178 205 255 252 222 224 163 210 166 92 148 154 159 167 82 65 125 144 148 149 151 156 161 163 158 155 150 142 140 138 129 123 118 113 115 120 127 134 135 130 118 117 118 119 117 112 110 103
199 183 244 242 242 252 316 229 247 118 154 155 153 181 97 88 104 137 154 147 148 150 151 166 164 158 156 154 147 146 144 144 137 127 122 120 124 124 124 127 129 127 125 123 119 114 109 107 104
169 202 236 244 236 231 278 4 207 141 155 169 161 133 105 108 149 151 147 147 148 151 150 161 163 158 158 156 150 147 147 144 140 137 128 126 125 123 126 129 131 132 129 126 123 119 113 108 102
196 237 240 238 243 249 229 336 188 175 160 179 194 134 109 119 152 148 149 150 152 150 153 159 161 156 158 155 150 146 143 144 143 142 128 132 130 125 124 130 131 132 130 127 122 114 108 102 100
209 251 235 233 229 212 235 242 197 192 171 173 189 145 112 138 149 150 153 154 153 150 148 158 158 157 159 154 148 148 142 142 141 141 135 131 129 126 125 127 131 132 132 128 121 115 110 102 103
241 219 242 254 248 234 221 228 210 200 188 185 165 149 130 149 154 154 157 154 150 154 149 153 157 159 159 152 148 145 142 143 141 140 138 135 133 133 131 131 134 134 132 130 129 124 117 112 106
234 247 240 231 228 226 153 203 226 207 189 150 180 175 166 167 163 157 158 157 157 159 154 155 157 157 159 154 150 144 142 143 144 144 141 140 138 137 135 134 137 138 139 139 136 130 119 110 108
215 235 234 228 219 206 176 207 169 186 165 190 181 159 160 163 164 161 162 162 159 165 166 159 159 159 158 157 152 147 145 143 143 141 142 139 140 141 135 142 139 141 143 143 139 134 127 115 107
214 226 232 231 222 206 172 201 173 190 180 185 168 139 151 161 162 170 170 170 166 168 171 169 161 162 159 154 154 151 144 139 141 145 145 141 144 146 149 147 145 148 146 145 145 139 120 88 76
220 237 228 224 235 230 209 217 203 215 206 202 195 170 164 165 171 177 176 179 172 170 172 172 167 165 159 161 157 154 151 148 146 147 138 151 149 149 146 153 152 146 144 124 125 125 130 138 125
239 233 241 225 199 206 225 232 217 226 227 233 206 185 173 175 176 179 181 180 175 172 176 174 173 169 163 163 158 162 158 153 150 155 151 153 147 148 151 153 159 143 148 143 132 145 164 183 190
229 235 231 237 217 225 233 228 235 228 233 239 187 179 183 182 180 183 184 183 180 176 176 177 175 173 171 164 166 162 168 155 164 158 165 161 158 160 155 164 159 159 152 153 152 175 174 170 199
215 234 231 235 227 227 226 232 211 236 223 210 183 184 187 186 183 184 185 186 185 180 179 179 177 178 177 170 170 167 165 175 159 165 170 167 167 173 174 174 167 172 190 162 173 182 146 201 243
233 236 231 221 226 218 225 237 222 236 203 204 198 195 192 191 187 188 187 187 187 185 181 184 179 180 180 180 177 171 173 168 171 172 175 177 176 186 182 187 192 196 186 186 200 218 230 242 250
213 231 233 216 217 220 223 234 224 215 201 207 205 199 193 193 193 191 189 187 188 185 188 182 181 184 184 182 180 176 182 178 178 179 183 183 185 187 186 192 197 200 208 224 237 226 221 221 212
204 226 219 223 206 220 215 230 239 179 203 207 203 200 194 194 195 196 194 190 188 187 188 185 186 186 187 188 182 180 182 178 182 185 185 185 190 193 192 200 210 215 229 238 237 228 213 213 195
200 223 221 220 200 222 224 234 232 201 214 212 200 200 198 198 200 197 195 190 190 190 189 188 188 188 190 191 188 187 189 190 187 190 198 200 205 202 197 209 215 220 229 234 230 226 217 194 168
247 219 232 213 147 232 223 228 230 204 219 213 202 198 203 204 200 197 195 193 190 189 190 190 188 188 188 191 190 193 194 199 199 204 208 209 214 211 208 218 221 227 233 234 235 226 219 192 185
209 209 214 199 199 234 223 226 230 207 209 219 208 204 201 200 195 196 195 194 191 190 194 192 193 197 201 198 196 197 196 204 210 215 214 214 218 222 221 227 235 241 249 250 244 228 208 203 189
217 222 223 235 194 227 259 234 224 234 223 227 226 213 204 197 195 194 197 196 194 194 199 196 199 206 206 204 201 206 211 213 213 217 217 218 222 231 234 237 246 253 256 251 243 232 218 200 203
211 218 229 225 223 222 204 237 211 220 218 216 214 211 204 200 198 201 201 201 201 199 200 202 203 207 207 206 210 216 220 221 223 223 219 221 225 234 235 237 245 250 251 245 240 231 221 203 203
224 196 210 210 218 244 202 237 239 215 215 222 202 205 205 203 200 200 202 204 203 196 214 215 219 213 217 215 221 222 217 213 211 216 218 221 226 234 243 245 245 250 244 244 239 236 223 215 202
156 178 185 205 218 232 222 217 205 196 239 225 215 179 211 209 207 206 203 201 202 210 223 227 224 219 220 223 223 224 218 207 214 220 219 221 227 233 240 246 247 246 244 242 242 239 229 208 200
185 171 171 200 203 231 189 200 183 80 21 341 325 20 205 208 206 205 202 202 207 208 218 223 221 221 222 225 221 225 220 222 231 232 225 222 226 231 241 242 239 241 236 237 237 232 227 220 212
199 194 195 197 207 196 157 216 141 79 85 86 91 86 78 99 187 203 207 206 208 208 212 226 231 221 217 222 222 224 220 225 221 222 228 233 228 234 242 238 233 237 233 235 233 227 221 215 216
197 207 224 261 346 211 181 116 125 118 98 90 86 77 67 60 69 136 205 212 215 215 223 224 228 223 219 223 222 224 225 232 232 233 234 233 235 237 238 231 234 232 230 231 225 221 217 212 213
233 205 204 222 189 199 191 179 146 155 111 86 72 69 62 58 53 45 8 216 210 212 219 224 219 225 230 233 233 231 229 234 236 237 240 236 229 241 233 227 231 230 225 223 216 211 206 202 198
195 214 214 230 235 219 182 190 106 125 91 76 58 49 50 51 46 48 54 59 195 202 209 223 233 234 232 238 239 236 236 238 242 234 233 233 237 230 220 224 226 222 221 216 208 204 200 193 191
314 230 212 223 208 234 235 123 125 115 89 78 66 52 44 40 42 49 54 64 101 141 193 222 245 251 249 248 243 243 243 243 238 237 242 230 234 224 215 222 220 221 218 212 206 199 195 192 192